When you browse on this site, cookies collect data to enhance your experience and personalize the content and advertising you see.
Visit our Privacy Policy to learn more. By continuing to use the site, you agree to this use of cookies and data.
  • In Hungary
  • List of Countries
  • For 7 days
  • Water Temperature
  • Weather Map
  • News
  • Weather Widgets
  • user-avatar
    Login

    Hourly Weather Shuybelyak

    Today, 22 September, Sunday

    Time Temperature Precipitation Wind Pressure Humidity
    00:00 +1°C° 0 mm 2 mps 738 mmHg 87%
    01:00 +1°C° 0 mm 2 mps 737 mmHg 87%
    02:00 +1°C° 0 mm 2 mps 737 mmHg 88%
    03:00 -1°C° 0 mm 2 mps 737 mmHg 89%
    04:00 -1°C° 0 mm 2 mps 736 mmHg 90%
    05:00 -1°C° 0 mm 2 mps 736 mmHg 91%
    06:00 -1°C° 0 mm 3 mps 736 mmHg 92%
    07:00 0°C° 0 mm 3 mps 735 mmHg 87%
    08:00 +2°C° 0 mm 3 mps 735 mmHg 82%
    09:00 +3°C° 0 mm 3 mps 735 mmHg 77%
    10:00 +4°C° 0.1 mm 3 mps 735 mmHg 71%
    11:00 +5°C° 0.1 mm 3 mps 734 mmHg 65%
    12:00 +8°C° 0.1 mm 3 mps 734 mmHg 60%
    13:00 +8°C° 0.3 mm 3 mps 733 mmHg 59%
    14:00 +8°C° 0.3 mm 3 mps 733 mmHg 59%
    15:00 +8°C° 0.3 mm 3 mps 732 mmHg 59%
    16:00 +6°C° 0.1 mm 2 mps 732 mmHg 65%
    17:00 +5°C° 0.1 mm 2 mps 732 mmHg 70%
    18:00 +5°C° 0.1 mm 1 mps 731 mmHg 76%
    19:00 +4°C° 0 mm 1 mps 731 mmHg 77%
    20:00 +3°C° 0 mm 2 mps 731 mmHg 78%
    21:00 +2°C° 0 mm 2 mps 731 mmHg 79%
    22:00 +2°C° 0 mm 2 mps 730 mmHg 81%
    23:00 +2°C° 0 mm 2 mps 730 mmHg 83%

    Tomorrow, 23 September, Monday

    Time Temperature Precipitation Wind Pressure Humidity
    00:00 0°C° 0 mm 3 mps 730 mmHg 85%
    01:00 0°C° 0 mm 3 mps 730 mmHg 87%
    02:00 0°C° 0 mm 3 mps 731 mmHg 89%
    03:00 -2°C° 0 mm 4 mps 731 mmHg 91%
    04:00 -2°C° 0 mm 4 mps 731 mmHg 93%
    05:00 -2°C° 0 mm 4 mps 731 mmHg 95%
    06:00 -3°C° 0 mm 4 mps 732 mmHg 97%
    07:00 -2°C° 0 mm 5 mps 732 mmHg 94%
    08:00 -1°C° 0 mm 5 mps 733 mmHg 91%
    09:00 0°C° 0 mm 5 mps 733 mmHg 88%
    10:00 -1°C° 0 mm 6 mps 734 mmHg 83%
    11:00 +1°C° 0 mm 6 mps 734 mmHg 78%
    12:00 +1°C° 0 mm 6 mps 735 mmHg 73%
    13:00 +1°C° 0.1 mm 6 mps 735 mmHg 73%
    14:00 +1°C° 0.1 mm 5 mps 735 mmHg 73%
    15:00 +1°C° 0.1 mm 5 mps 736 mmHg 72%
    16:00 0°C° 0 mm 4 mps 736 mmHg 75%
    17:00 0°C° 0 mm 4 mps 736 mmHg 77%
    18:00 0°C° 0 mm 3 mps 737 mmHg 80%
    19:00 +1°C° 0 mm 2 mps 737 mmHg 81%
    20:00 -1°C° 0 mm 2 mps 737 mmHg 83%
    21:00 -1°C° 0 mm 2 mps 737 mmHg 84%
    22:00 -1°C° 0.1 mm 2 mps 738 mmHg 87%
    23:00 0°C° 0.1 mm 1 mps 738 mmHg 90%

    Day after tomorrow, 24 September, Tuesday

    Time Temperature Precipitation Wind Pressure Humidity
    00:00 0°C° 0.1 mm 1 mps 738 mmHg 93%
    01:00 -2°C° 0.1 mm 2 mps 738 mmHg 94%
    02:00 -2°C° 0.1 mm 2 mps 739 mmHg 95%
    03:00 -2°C° 0.1 mm 2 mps 739 mmHg 95%
    04:00 -2°C° 0 mm 3 mps 740 mmHg 94%
    05:00 -2°C° 0 mm 3 mps 740 mmHg 93%
    06:00 -3°C° 0 mm 4 mps 741 mmHg 92%
    07:00 -2°C° 0 mm 4 mps 741 mmHg 90%
    08:00 -2°C° 0 mm 4 mps 741 mmHg 88%
    09:00 -1°C° 0 mm 4 mps 741 mmHg 86%
    10:00 -1°C° 0 mm 5 mps 741 mmHg 83%
    11:00 0°C° 0 mm 5 mps 742 mmHg 81%
    12:00 +1°C° 0 mm 5 mps 742 mmHg 78%
    13:00 +1°C° 0 mm 5 mps 742 mmHg 79%
    14:00 +1°C° 0 mm 5 mps 742 mmHg 81%
    15:00 +1°C° 0 mm 5 mps 742 mmHg 82%
    16:00 0°C° 0.3 mm 5 mps 742 mmHg 86%
    17:00 0°C° 0.3 mm 5 mps 742 mmHg 90%
    18:00 0°C° 0.3 mm 4 mps 742 mmHg 95%
    19:00 0°C° 0.3 mm 4 mps 742 mmHg 94%
    20:00 0°C° 0.3 mm 4 mps 742 mmHg 94%
    21:00 0°C° 0.3 mm 4 mps 742 mmHg 94%
    22:00 0°C° 0 mm 4 mps 742 mmHg 93%
    23:00 0°C° 0 mm 4 mps 742 mmHg 92%

    25 September, Wednesday

    Time Temperature Precipitation Wind Pressure Humidity
    00:00 0°C° 0 mm 4 mps 742 mmHg 92%
    01:00 0°C° 0 mm 4 mps 742 mmHg 92%
    02:00 -1°C° 0 mm 4 mps 742 mmHg 93%
    03:00 -1°C° 0 mm 5 mps 743 mmHg 93%
    04:00 -1°C° 0 mm 5 mps 743 mmHg 93%
    05:00 -1°C° 0 mm 5 mps 743 mmHg 93%
    06:00 -1°C° 0 mm 5 mps 743 mmHg 92%
    07:00 -1°C° 0 mm 5 mps 743 mmHg 90%
    08:00 -1°C° 0 mm 5 mps 743 mmHg 88%
    09:00 0°C° 0 mm 5 mps 743 mmHg 85%
    10:00 0°C° 0 mm 5 mps 743 mmHg 85%
    11:00 0°C° 0 mm 5 mps 744 mmHg 85%
    12:00 0°C° 0 mm 5 mps 744 mmHg 85%
    13:00 0°C° 0 mm 5 mps 744 mmHg 83%
    14:00 0°C° 0 mm 5 mps 744 mmHg 81%
    15:00 +1°C° 0 mm 5 mps 744 mmHg 79%
    16:00 0°C° 0 mm 5 mps 744 mmHg 82%
    17:00 0°C° 0 mm 4 mps 744 mmHg 84%
    18:00 0°C° 0 mm 4 mps 744 mmHg 87%
    19:00 -1°C° 0 mm 4 mps 744 mmHg 88%
    20:00 -2°C° 0 mm 4 mps 744 mmHg 90%
    21:00 -2°C° 0 mm 4 mps 744 mmHg 91%
    22:00 -3°C° 0 mm 4 mps 744 mmHg 91%
    23:00 -3°C° 0 mm 4 mps 744 mmHg 92%

    26 September, Thursday

    Time Temperature Precipitation Wind Pressure Humidity
    00:00 -4°C° 0 mm 4 mps 744 mmHg 92%
    01:00 -3°C° 0 mm 4 mps 744 mmHg 93%
    02:00 -3°C° 0 mm 4 mps 744 mmHg 94%
    03:00 -4°C° 0 mm 5 mps 744 mmHg 95%
    04:00 -4°C° 0 mm 5 mps 744 mmHg 94%
    05:00 -2°C° 0 mm 5 mps 744 mmHg 92%
    06:00 -1°C° 0 mm 5 mps 744 mmHg 91%
    07:00 -1°C° 0 mm 6 mps 744 mmHg 86%
    08:00 -1°C° 0 mm 6 mps 744 mmHg 81%
    09:00 +1°C° 0 mm 6 mps 744 mmHg 77%
    10:00 +2°C° 0 mm 6 mps 744 mmHg 73%
    11:00 +2°C° 0 mm 7 mps 745 mmHg 70%
    12:00 +3°C° 0 mm 7 mps 745 mmHg 67%
    13:00 +3°C° 0 mm 7 mps 745 mmHg 66%
    14:00 +3°C° 0 mm 6 mps 745 mmHg 66%
    15:00 +3°C° 0 mm 6 mps 745 mmHg 66%
    16:00 +2°C° 0 mm 5 mps 745 mmHg 70%
    17:00 +1°C° 0 mm 4 mps 745 mmHg 74%
    18:00 +1°C° 0 mm 4 mps 745 mmHg 78%
    19:00 +2°C° 0 mm 3 mps 745 mmHg 78%
    20:00 +2°C° 0 mm 3 mps 745 mmHg 78%
    21:00 +1°C° 0 mm 3 mps 745 mmHg 78%
    22:00 +1°C° 0 mm 3 mps 745 mmHg 80%
    23:00 0°C° 0 mm 3 mps 745 mmHg 83%

    27 September, Friday

    Time Temperature Precipitation Wind Pressure Humidity
    00:00 0°C° 0 mm 3 mps 744 mmHg 86%
    01:00 0°C° 0 mm 3 mps 744 mmHg 87%
    02:00 0°C° 0 mm 3 mps 744 mmHg 87%
    03:00 0°C° 0 mm 3 mps 744 mmHg 88%
    04:00 +1°C° 0 mm 2 mps 744 mmHg 89%
    05:00 +1°C° 0 mm 2 mps 744 mmHg 90%
    06:00 +1°C° 0 mm 2 mps 744 mmHg 91%
    07:00 +2°C° 0 mm 2 mps 744 mmHg 87%
    08:00 +3°C° 0 mm 2 mps 744 mmHg 83%
    09:00 +4°C° 0 mm 2 mps 744 mmHg 79%
    10:00 +4°C° 0.1 mm 2 mps 744 mmHg 82%
    11:00 +5°C° 0.1 mm 1 mps 744 mmHg 86%
    12:00 +5°C° 0.1 mm 1 mps 744 mmHg 90%
    13:00 +5°C° 0.8 mm 1 mps 744 mmHg 92%
    14:00 +5°C° 0.8 mm 1 mps 743 mmHg 94%
    15:00 +4°C° 0.8 mm 1 mps 743 mmHg 96%
    16:00 +4°C° 0.4 mm 1 mps 743 mmHg 96%
    17:00 +4°C° 0.4 mm 1 mps 743 mmHg 97%
    18:00 +3°C° 0.4 mm 2 mps 743 mmHg 97%
    19:00 +3°C° 0.1 mm 2 mps 743 mmHg 97%
    20:00 +2°C° 0.1 mm 3 mps 743 mmHg 96%
    21:00 +2°C° 0.1 mm 3 mps 743 mmHg 96%
    22:00 0°C° 0 mm 4 mps 743 mmHg 95%
    23:00 0°C° 0 mm 4 mps 744 mmHg 95%
    Show more